Weather in Srednebelaya

Russia / Amur Oblast     50°39′32″N   128°00′25″E
temp.,
°C
wind,
m/s
gust,
m/s
humid.,
%
clouds,
%
prec.,
mm/h
press.,
hPa
HPBL,
m
11 may, tue
tue1100:00+7s248298 0.0 101381
03:00+6s339255 0.0 101442
06:00+6s259049 0.0 1015141
09:00+12sse44584 0.0 1014669
12:00+16sse554022 0.0 10131611
15:00+18sse6635100 0.0 10112125
18:00+16se6843100 0.0 10101388
21:00+12se81458100 0.0 1010555
12 may, wed
wed1200:00+10se91763100 0.0 1009568
03:00+9se91874100 0.0 1006563
06:00+9se101871100 0.0 1003709
09:00+8se122085100 5.1 10001143
12:00+9se111781100 0.4 9991028
15:00+10se10157889 0.6 998939
18:00+12se6972100 1.4 9961072
21:00+9se4885100 1.9 997337
13 may, thu
thu1300:00+8se3489100 0.4 997198
03:00+8w1292100 0.4 99850
06:00+8w3691100 0.3 1000242
09:00+10wnw688396 0.8 1002702
12:00+12wnw576772 0.1 10051101
15:00+15nw58494 0.2 10051386
18:00+18ese2439100 0.0 1003560
21:00+11ese3668100 0.0 100496
14 may, fri
fri1400:00+10se2268100 0.0 100524
03:00+11w41062100 0.0 1004270
06:00+10ese4973100 0.0 1002196
09:00+13sse71459100 0.0 999935
12:00+11sw91578100 5.0 9971009
15:00+16wsw11164149 5.1 9952496
18:00+10wsw8146240 0.0 9971588
21:00+9wsw81465100 0.1 9971474
15 may, sat
sat1500:00+8wsw81376100 0.1 9971216
03:00+7w71288100 1.3 997898
06:00+7wnw81387100 0.1 998822
09:00+8wnw81283100 0.6 10011030
12:00+8nw81283100 0.1 1003929
15:00+8nw71183100 0.4 10041198
18:00+10nw61274100 0.1 10041067
21:00+8nw4108781 0.1 1006231